FENGYUN 1C DEB, 29869

Orbit data source: Space-Track

FENGYUN 1C DEB, 29869 is space debris in SSO originally from a launch on Mon, 10 May 1999 UTC launched from the Taiyaun Space Center, China (TSC). Fengyun 1C debris stems from the Chinese weather satellite Fengyun-1C, which was intentionally destroyed by a Chinese anti-satellite missile in 2007. This event dramatically increased the amount of space debris, with thousands of trackable fragments posing hazards to satellites and human spaceflight. The Fengyun 1C debris cloud has become a focal point in discussions about space sustainability and the need for international regulations to prevent the creation of new debris.

Loading next visibility...
Identifier
29869, 1999-025FP
Orbit
SSO
Country
Flag of CNCN / PRC
Related business
Manufacturer
Unknown
Mission
Spacecraft
Bus & Motor
Unknown
Mass
Unknown
Launch date (UTC)
1999-05-10 (27 years ago)
Launch vehicle
Unknown
Launch site
Taiyaun Space Center, China (TSC)
Object type
Payload
Rocket body
Debris
Shape & HBR
Unknown shape, 0.1 m
Radar Cross Section
Medium (>0.1 m² and <1 m²)

Expand to show TLE details & history
Last TLE update: 6 days ago

TLE from 6 days ago
0 FENGYUN 1C DEB
1 29869U 99025FP  26154.32713704  .00000698  00000-0  24029-3 0  9997
2 29869  98.8874  95.1309 0085640 221.1642 261.2233 14.37269441 12944
Epoch: 2026-06-03T07:51Z
TLE epoch observation values (Epoch: 2026-06-03T07:51:04.640Z)
Latitude
57.57185°
Longitude
-80.25433°
Altitude
787.031 km
Speed
7.461 km/s
True Right ascension
19h 17m 12s
True Declination
57° 24' 60"
Sunlit
Object was in daylight at epoch
Visualization orbit readout
Latitude
Unknown
Longitude
Unknown
Altitude
Unknown
Speed
Unknown
Apparent Right ascension
Unknown
Apparent Declination
Unknown
Sunlit
N/A
Visualization observer readout
Local Sidereal Time
19:39:39
Azimuth
Unknown
Elevation
Unknown
Doppler factor
Unknown
Orbital elements
Apogee altitude
825.849 km
Perigee altitude
703.507 km
Semi-major axis
7,142.815 km
Eccentricity
0.00856
Inclination
98.8874°
RAAN
95.1309°
Arg. of periapsis
221.1642°
True anomaly
260.25506°
Mean anomaly
261.2233°
Eccentric anomaly
260.73901°
Mean motion
3.59533 °/min
Orbital period
100.13 mins
BSTAR
0.00024029
Loading maneuver chart data...
Computing Atmospheric mass density...

Documentation

Showing up to 5 results
|